Weather Roundup
Issued by NWS Chicago, IL

Home | Current Version | Previous Version | Text Only | Print | Product List | Glossary On
Versions: 1 2 3 4 5 6 7 8 9 10 11 12 13 14 15 16 17 18 19 20 21 22 23 24 25 26 27 28 29 30 31 32 33 34 35 36 37 38 39 40 41 42 43 44 45 46 47 48 49 50
000
NZUS59 KLOT 162212
HRRLOT

CHICAGO AREA WEATHER ROUNDUP
NATIONAL WEATHER SERVICE CHICAGO/ROMEOVILLE IL
400 PM CST MON JAN 16 2017

NOTE: "FAIR" INDICATES FEW OR NO CLOUDS BELOW 12,000 FEET WITH NO
SIGNIFICANT WEATHER AND/OR OBSTRUCTIONS TO VISIBILITY.

* THESE STATIONS ARE NOT UNDER NWS QUALITY CONTROL. THEY ALSO MAY NOT
  REPORT WEATHER SUCH AS PRECIPITATION OR FOG.

ILZ005-006-012>014-019>023-162300-
NORTHEAST ILLINOIS

CITY           SKY/WX    TMP DP  RH WIND       PRES   REMARKS
OHARE          LGT RAIN  36  35  96 E8        30.05F FOG
MIDWAY         LGT RAIN  36  35  96 E7        30.07F FOG
AURORA         HVY RAIN  37  35  92 E5        30.05S FOG
LANSING*       LGT RAIN  36  36 100 E6        30.08S VSB 3/4
JOLIET*        RAIN      37  37  99 E6        30.05F VSB 3/4
WAUKEGAN       LGT RAIN  36  35  96 E8        30.08S VSB 3/4
DUPAGE AIRPORT RAIN      36  33  89 E8        30.04F FOG
WHEELING       LGT RAIN  35  34  96 E3        30.08F FOG
KANKAKEE*      FOG       38  37  97 E9        30.05F VSB<1/4
MORRIS*        LGT RAIN  36  35  97 E7        30.03F VSB 1/4
LEWIS AIRPORT* FOG       36  36 100 SE7       30.05F VSB 3/4
NORTHERLY ISL    N/A     33  32  96 NE3         N/A
$$

WIZ051-052-058>065-066-070>072-162300-
SOUTHEAST WISCONSIN

CITY           SKY/WX    TMP DP  RH WIND       PRES   REMARKS
MILWAUKEE      LGT RAIN  35  32  88 E10       30.10F FOG     WCI  27
KENOSHA*       RAIN      36  34  92 E10       30.08F VSB 1/2
RACINE*        RAIN      36  34  92 E10       30.11S FOG
WAUKESHA       LGT RAIN  32  30  93 E9        30.09F FOG     WCI  24
WEST BEND      LGT RAIN  32  32 100 E8        30.09F WCI  25
$$

INZ001>003-010>013-019-020-162300-
NORTHWEST INDIANA

CITY           SKY/WX    TMP DP  RH WIND       PRES   REMARKS
GARY*          LGT RAIN  37  37 100 SE9       30.08F VSB 1
MICHIGAN CITY* NOT AVBL
RENSSELAER*    NOT AVBL
VALPARAISO     FOG       37  36  96 E9        30.08F VSB<1/4
$$

LMZ740>746-162300-
SOUTHERN LAKE MICHIGAN

STATION/POSITION TIME  SKY/WX   TEMP WIND        PRES    VSBY
                                AIR  DIR/SP/G
                 (UTC)          (F)  (DEG/KT/KT) (MB)    (MI)
HARRISON CRIB    2140            35  100/ 10/ 10   N/A
BURNHAM HARBOR   2200            33   60/  3/  6   N/A
CALUMET HARBOR   2148            33   80/  5/  7 1017.8F
BURNS HARBOR     2140            38  110/  9/ 15 1019.3S
MICHIGAN CITY    2140            36  100/  8/ 10   N/A
$$

ABBREVIATIONS USED IN REMARKS
   TC - TEMPERATURE IN CELSIUS
  WCI - WIND CHILL INDEX
   HX - HEAT INDEX
  VSB - VISIBILITY
$$




USA.gov is the U.S. government's official web portal to all federal, state and local government web resources and services.